This is the latest recevied weather packets stored in our database for station/object AB4KN. If no packets are shown the sender has not sent any weather packets the latest 10 day(s).
| Time | Temp. | Humidity | Pressure | Rain* | Wind** | Luminosity | Snow |
|---|---|---|---|---|---|---|---|
| 1778132312 | 20° C | 89% | 1017 hPa | 4.83 mm | - | 0 W/m² | - |
| 1778132010 | 20° C | 89% | 1016.7 hPa | 3.56 mm | - | 0 W/m² | - |
| 1778131708 | 20° C | 89% | 1016.9 hPa | 3.05 mm | - | 0 W/m² | - |
| 1778131404 | 20° C | 89% | 1016.7 hPa | 4.32 mm | - | 0 W/m² | - |
| 1778131102 | 20° C | 89% | 1017.2 hPa | 7.87 mm | - | 0 W/m² | - |
| 1778130800 | 20° C | 89% | 1017.7 hPa | 8.89 mm | - | 0 W/m² | - |
| 1778130496 | 20° C | 89% | 1018.5 hPa | 9.65 mm | - | 0 W/m² | - |
| 1778130193 | 20° C | 89% | 1019.5 hPa | 6.6 mm | - | 0 W/m² | - |
| 1778129890 | 20° C | 89% | 1019 hPa | 4.32 mm | - | 0 W/m² | - |
| 1778129586 | 20° C | 89% | 1018.6 hPa | 4.32 mm | - | 0 W/m² | - |
| 1778129284 | 20° C | 89% | 1018.5 hPa | 4.83 mm | - | 0 W/m² | - |
| 1778128980 | 20° C | 89% | 1017.9 hPa | 3.05 mm | - | 0 W/m² | - |
| 1778128676 | 20° C | 89% | 1017.9 hPa | 3.05 mm | - | 0 W/m² | - |
| 1778128373 | 20° C | 89% | 1017.9 hPa | 1.27 mm | - | 0 W/m² | - |
| 1778128069 | 20° C | 89% | 1017.7 hPa | 1.78 mm | - | 0 W/m² | - |
| 1778127764 | 20° C | 89% | 1017.8 hPa | 1.78 mm | - | 0 W/m² | - |
| 1778127462 | 20° C | 89% | 1017.8 hPa | 0 mm | - | 0 W/m² | - |
| 1778127158 | 20° C | 89% | 1018.2 hPa | 1.27 mm | - | 0 W/m² | - |
| 1778126856 | 20° C | 89% | 1018 hPa | 1.27 mm | - | 0 W/m² | - |
| 1778126551 | 20° C | 89% | 1018.3 hPa | 0 mm | - | 0 W/m² | - |
| 1778126247 | 20° C | 89% | 1018.5 hPa | 0 mm | - | 0 W/m² | - |
| 1778125943 | 20° C | 89% | 1018.5 hPa | 0 mm | - | 0 W/m² | - |
| 1778125641 | 20° C | 89% | 1018.3 hPa | 0 mm | - | 0 W/m² | - |
| 1778125338 | 20° C | 89% | 1017.6 hPa | 0 mm | - | 0 W/m² | - |
| 1778125036 | 20.56° C | 89% | 1017.9 hPa | 0 mm | - | 0 W/m² | - |
* Rain latest hour (hover to see other rain measurements)
** Current wind speed in m/s (hover to see current wind gust speed)